Data for 04/04/2007

Time Sea-Level Adjusted Pressure Absolute Pressure Temperature Relative Humidity Dew Point   
(mb) (inHg) (mb) (inHg) (C) (F) (%) (C) (F)
00:05 1023 30.21 852 25.16 -3.4 25.8 88 -5.1 22.8
00:10 1023 30.21 853 25.19 -3.4 25.8 88 -5.1 22.8
00:15 1023 30.21 852 25.16 -3.4 25.8 88 -5.1 22.8
00:20 1023 30.21 853 25.19 -3.4 25.8 88 -5.1 22.8
00:25 1023 30.21 853 25.19 -3.5 25.8 89 -5.1 22.8
00:30 1023 30.21 853 25.19 -3.4 25.8 88 -5.1 22.8
00:35 1023 30.21 852 25.16 -3.4 25.8 89 -5.1 22.9
00:40 1023 30.21 852 25.16 -3.5 25.8 89 -5 23
00:45 1023 30.21 853 25.19 -3.5 25.7 89 -5 23
00:50 1023 30.21 853 25.19 -3.6 25.6 90 -5 23
00:55 1023 30.21 852 25.16 -3.6 25.5 90 -5 22.9
01:00 1023 30.21 853 25.19 -3.6 25.5 90 -5 23
01:05 1023 30.21 853 25.19 -3.6 25.5 90 -5 23
01:10 1023 30.21 853 25.19 -3.6 25.4 90 -5 23
01:15 1023 30.21 853 25.19 -3.7 25.3 90 -5.1 22.9
01:20 1023 30.21 853 25.19 -3.7 25.4 90 -5 22.9
01:25 1023 30.21 853 25.19 -3.7 25.4 90 -5 22.9
01:30 1023 30.21 853 25.19 -3.7 25.4 91 -5 23
01:35 1023 30.21 853 25.19 -3.7 25.3 91 -5 23
01:40 1023 30.21 853 25.19 -3.7 25.3 91 -5 22.9
01:45 1023 30.21 853 25.19 -3.7 25.3 91 -5 23
01:50 1023 30.21 853 25.19 -3.7 25.3 91 -5 23
01:55 1024 30.24 853 25.19 -3.8 25.2 91 -5.1 22.9
02:00 1023 30.21 853 25.19 -3.8 25.2 91 -5 23
02:05 1023 30.21 853 25.19 -3.8 25.2 91 -5 23
02:10 1023 30.21 853 25.19 -3.8 25.1 91 -5.1 22.8
02:15 1023 30.21 853 25.19 -3.8 25.2 91 -5 23
02:20 1023 30.21 853 25.19 -3.8 25.1 92 -5 23
02:25 1023 30.21 853 25.19 -3.8 25.1 92 -5 23
02:30 1023 30.21 853 25.19 -3.8 25.1 92 -5 23
02:35 1023 30.21 853 25.19 -3.8 25.1 92 -5 23
02:40 1023 30.21 853 25.19 -3.8 25.1 91 -5 23
02:45 1023 30.21 853 25.19 -3.8 25.1 91 -5.1 22.9
02:50 1023 30.21 853 25.19 -3.8 25.1 91 -5.1 22.9
02:55 1023 30.21 853 25.19 -3.9 25.1 91 -5.1 22.9
03:00 1023 30.21 852 25.16 -3.8 25.1 92 -5 23
03:05 1023 30.21 853 25.19 -3.8 25.1 92 -5 22.9
03:10 1023 30.21 853 25.19 -3.9 25 92 -5 23
03:15 1023 30.21 853 25.19 -3.9 25 92 -5 23.1
03:20 1023 30.21 852 25.16 -3.8 25.1 92 -5 23
03:25 1023 30.21 852 25.16 -3.9 25.1 92 -5 23
03:30 1023 30.21 852 25.16 -3.8 25.2 92 -5 23
03:35 1023 30.21 853 25.19 -3.8 25.1 92 -5 22.9
03:40 1023 30.21 852 25.16 -3.8 25.1 92 -5 23
03:45 1023 30.21 852 25.16 -3.8 25.1 92 -5 23
03:50 1023 30.21 852 25.16 -3.8 25.2 91 -5 23
03:55 1023 30.21 852 25.16 -3.8 25.2 91 -5 23
04:00 1023 30.21 852 25.16 -3.8 25.1 91 -5 22.9
04:05 1023 30.21 852 25.16 -3.8 25.2 91 -5 23
04:10 1023 30.21 852 25.16 -3.8 25.2 91 -5 23
04:15 1023 30.21 852 25.16 -3.8 25.1 91 -5 23
04:20 1023 30.21 852 25.16 -3.8 25.1 91 -5.1 22.9
04:25 1023 30.21 852 25.16 -3.8 25.2 91 -5.1 22.8
04:30 1023 30.21 852 25.16 -3.8 25.2 91 -5.1 22.9
04:35 1023 30.21 852 25.16 -3.8 25.2 91 -5.1 22.8
04:40 1023 30.21 852 25.16 -3.8 25.2 90 -5.1 22.8
04:45 1023 30.21 852 25.16 -3.8 25.2 90 -5.2 22.7
04:50 1023 30.21 852 25.16 -3.7 25.3 90 -5.1 22.8
04:55 1023 30.21 852 25.16 -3.7 25.3 90 -5.2 22.7
05:00 1023 30.21 852 25.16 -3.7 25.3 89 -5.2 22.6
05:05 1023 30.21 852 25.16 -3.7 25.4 89 -5.2 22.6
05:10 1023 30.21 852 25.16 -3.6 25.5 88 -5.3 22.5
05:15 1023 30.21 852 25.16 -3.6 25.6 89 -5.2 22.7
05:20 1023 30.21 852 25.16 -3.6 25.5 89 -5.1 22.8
05:25 1023 30.21 852 25.16 -3.6 25.5 89 -5.2 22.6
05:30 1023 30.21 852 25.16 -3.6 25.5 88 -5.3 22.5
05:35 1023 30.21 852 25.16 -3.5 25.6 88 -5.2 22.7
05:40 1023 30.21 852 25.16 -3.6 25.6 88 -5.3 22.5
05:45 1023 30.21 852 25.16 -3.5 25.7 87 -5.4 22.4
05:50 1023 30.21 852 25.16 -3.5 25.7 87 -5.4 22.4
05:55 1023 30.21 852 25.16 -3.5 25.8 87 -5.3 22.5
06:00 1023 30.21 852 25.16 -3.5 25.6 87 -5.3 22.4
06:05 1023 30.21 852 25.16 -3.5 25.7 87 -5.4 22.4
06:10 1023 30.21 852 25.16 -3.5 25.7 87 -5.3 22.4
06:15 1023 30.21 852 25.16 -3.5 25.8 87 -5.4 22.4
06:20 1023 30.21 852 25.16 -3.5 25.8 86 -5.4 22.2
06:25 1023 30.21 852 25.16 -3.4 25.8 87 -5.4 22.3
06:30 1023 30.21 852 25.16 -3.4 25.8 86 -5.5 22.2
06:35 1023 30.21 852 25.16 -3.4 25.9 85 -5.5 22.1
06:40 1023 30.21 852 25.16 -3.3 26 86 -5.4 22.3
06:45 1023 30.21 852 25.16 -3.4 26 85 -5.5 22.2
06:50 1023 30.21 852 25.16 -3.3 26.1 85 -5.5 22.1
06:55 1023 30.21 852 25.16 -3.3 26.1 85 -5.4 22.3
07:00 1023 30.21 852 25.16 -3.2 26.2 85 -5.5 22.1
07:05 1023 30.21 852 25.16 -3.2 26.2 85 -5.4 22.2
07:10 1023 30.21 852 25.16 -3.2 26.2 85 -5.4 22.2
07:15 1023 30.21 852 25.16 -3.2 26.2 84 -5.5 22.1
07:20 1023 30.21 852 25.16 -3.2 26.2 84 -5.6 21.9
07:25 1023 30.21 852 25.16 -3.2 26.2 83 -5.6 21.9
07:30 1023 30.21 852 25.16 -3.2 26.3 84 -5.5 22
07:35 1023 30.21 852 25.16 -3.2 26.2 83 -5.6 21.8
07:40 1023 30.21 852 25.16 -3.3 26.1 84 -5.6 21.9
07:45 1023 30.21 852 25.16 -3.2 26.2 84 -5.5 22
07:50 1023 30.21 852 25.16 -3.1 26.3 84 -5.4 22.2
07:55 1023 30.21 852 25.16 -3.1 26.4 84 -5.5 22.1
08:00 1023 30.21 852 25.16 -3 26.7 83 -5.5 22.1
08:05 1023 30.21 852 25.16 -2.9 26.9 82 -5.6 21.9
08:10 1023 30.21 852 25.16 -2.8 26.9 82 -5.6 22
08:15 1023 30.21 852 25.16 -2.8 27 82 -5.5 22.2
08:20 1023 30.21 852 25.16 -2.8 27 82 -5.5 22.1
08:25 1023 30.21 852 25.16 -2.7 27.2 81 -5.5 22.2
08:30 1023 30.21 852 25.16 -2.6 27.4 81 -5.3 22.4
08:35 1023 30.21 852 25.16 -2.6 27.4 82 -5.3 22.4
08:40 1023 30.21 852 25.16 -2.5 27.6 81 -5.3 22.5
08:45 1023 30.21 852 25.16 -2.3 27.9 80 -5.3 22.4
08:50 1023 30.21 852 25.16 -2.2 28 80 -5.2 22.6
08:55 1023 30.21 852 25.16 -2.1 28.1 79 -5.3 22.4
09:00 1023 30.21 852 25.16 -2.2 28.1 80 -5.2 22.7
09:05 1023 30.21 852 25.16 -2 28.4 78 -5.4 22.3
09:10 1023 30.21 852 25.16 -1.8 28.8 77 -5.3 22.5
09:15 1023 30.21 852 25.16 -1.5 29.3 76 -5.3 22.5
09:20 1023 30.21 852 25.16 -1.3 29.7 75 -5.2 22.7
09:25 1023 30.21 852 25.16 -1.4 29.6 76 -5.1 22.8
09:30 1023 30.21 852 25.16 -1.1 30 76 -4.9 23.2
09:35 1022 30.18 852 25.16 -1 30.1 76 -4.7 23.5
09:40 1022 30.18 852 25.16 -1 30.2 76 -4.7 23.5
09:45 1022 30.18 852 25.16 -0.8 30.6 73 -4.9 23.1
09:50 1022 30.18 852 25.16 -0.6 31 73 -4.8 23.3
09:55 1022 30.18 851 25.13 -0.4 31.3 73 -4.7 23.5
10:00 1022 30.18 851 25.13 -0.2 31.6 72 -4.6 23.7
10:05 1022 30.18 851 25.13 -0.1 31.8 71 -4.7 23.5
10:10 1022 30.18 851 25.13 -0.1 31.9 71 -4.7 23.5
10:15 1022 30.18 851 25.13 0.2 32.3 70 -4.7 23.5
10:20 1022 30.18 852 25.16 0.5 32.9 70 -4.3 24.3
10:25 1022 30.18 852 25.16 0.4 32.8 71 -4.2 24.4
10:30 1022 30.18 852 25.16 0.2 32.4 71 -4.4 24.1
10:35 1022 30.18 852 25.16 0.4 32.7 71 -4.2 24.4
10:40 1022 30.18 852 25.16 0.7 33.2 70 -4.2 24.4
10:45 1023 30.21 852 25.16 1.3 34.3 68 -4 24.7
10:50 1022 30.18 852 25.16 1.7 35.1 67 -3.7 25.3
10:55 1022 30.18 852 25.16 1.1 34 68 -4.1 24.7
11:00 1023 30.21 852 25.16 1.1 34 69 -4.1 24.7
11:05 1023 30.21 852 25.16 1.3 34.3 67 -4.2 24.4
11:10 1023 30.21 852 25.16 1.8 35.2 67 -3.8 25.2
11:15 1022 30.18 852 25.16 1.7 35.1 65 -4.1 24.7
11:20 1022 30.18 852 25.16 2.2 35.9 64 -3.9 25
11:25 1022 30.18 852 25.16 1.7 35.1 67 -3.7 25.3
11:30 1022 30.18 852 25.16 1.3 34.4 69 -3.8 25.2
11:35 1022 30.18 852 25.16 0.9 33.7 70 -3.9 25.1
11:40 1022 30.18 852 25.16 1.6 34.9 67 -3.9 24.9
11:45 1022 30.18 852 25.16 2 35.6 66 -3.6 25.5
11:50 1022 30.18 852 25.16 1.3 34.4 69 -3.8 25.1
11:55 1022 30.18 851 25.13 1.8 35.2 65 -4.1 24.6
12:00 1022 30.18 851 25.13 3.1 37.5 58 -4.3 24.3
12:05 1022 30.18 851 25.13 4.2 39.6 57 -3.6 25.5
12:10 1022 30.18 851 25.13 4.8 40.6 55 -3.5 25.7
12:15 1022 30.18 851 25.13 4.1 39.5 57 -3.5 25.7
12:20 1022 30.18 851 25.13 3.7 38.7 57 -4 24.8
12:25 1022 30.18 851 25.13 4.8 40.6 54 -3.6 25.5
12:30 1022 30.18 851 25.13 5.2 41.3 55 -3.1 26.4
12:35 1022 30.18 851 25.13 5.1 41.3 57 -2.8 27
12:40 1022 30.18 851 25.13 4.9 40.8 56 -3.1 26.5
12:45 1022 30.18 851 25.13 4.1 39.3 59 -3.1 26.3
12:50 1022 30.18 851 25.13 4 39.2 58 -3.4 25.8
12:55 1022 30.18 851 25.13 4.2 39.5 60 -2.9 26.8
13:00 1022 30.18 851 25.13 4.4 39.8 58 -3.2 26.2
13:05 1022 30.18 851 25.13 5 41 54 -3.6 25.6
13:10 1022 30.18 851 25.13 5.3 41.5 54 -3.4 25.9
13:15 1022 30.18 851 25.13 5.6 42.1 55 -2.7 27.2
13:20 1022 30.18 851 25.13 4.9 40.7 57 -3 26.6
13:25 1022 30.18 851 25.13 4.8 40.7 57 -3 26.5
13:30 1022 30.18 851 25.13 5.1 41.2 54 -3.4 25.9
13:35 1021 30.15 851 25.13 5.2 41.4 57 -2.6 27.3
13:40 1021 30.15 851 25.13 4.7 40.4 60 -2.4 27.7
13:45 1021 30.15 851 25.13 4.7 40.5 58 -2.9 26.7
13:50 1021 30.15 851 25.13 4.7 40.4 58 -2.8 26.9
13:55 1021 30.15 850 25.1 4.5 40.1 59 -2.9 26.9
14:00 1021 30.15 850 25.1 4.7 40.5 58 -2.9 26.8
14:05 1021 30.15 850 25.1 5 41 56 -3 26.6
14:10 1021 30.15 850 25.1 5.5 41.8 55 -2.8 27
14:15 1021 30.15 850 25.1 5.6 42 54 -2.9 26.8
14:20 1021 30.15 850 25.1 5.2 41.3 58 -2.5 27.5
14:25 1021 30.15 850 25.1 5.1 41.1 58 -2.6 27.4
14:30 1021 30.15 850 25.1 4.8 40.7 59 -2.4 27.6
14:35 1021 30.15 850 25.1 5 41.1 59 -2.3 27.8
14:40 1021 30.15 850 25.1 5 41 61 -2 28.5
14:45 1021 30.15 850 25.1 5.4 41.7 60 -1.8 28.7
14:50 1021 30.15 850 25.1 5.4 41.7 59 -2.1 28.3
14:55 1021 30.15 850 25.1 5.9 42.7 58 -1.7 28.9
15:00 1021 30.15 850 25.1 6.5 43.7 55 -1.8 28.8
15:05 1021 30.15 850 25.1 6.3 43.4 59 -1 30.2
15:10 1021 30.15 850 25.1 5.9 42.6 58 -1.6 29.1
15:15 1020 30.12 850 25.1 5.9 42.6 58 -1.6 29.1
15:20 1020 30.12 850 25.1 6.2 43.1 59 -1.3 29.7
15:25 1020 30.12 850 25.1 6.6 43.8 58 -1 30.1
15:30 1020 30.12 850 25.1 6.5 43.7 59 -1 30.3
15:35 1020 30.12 850 25.1 6.6 43.9 57 -1.2 29.8
15:40 1020 30.12 850 25.1 6.6 43.8 57 -1.3 29.7
15:45 1020 30.12 850 25.1 6.7 44.1 57 -1.1 30
15:50 1020 30.12 850 25.1 6.8 44.2 56 -1.3 29.6
15:55 1020 30.12 849 25.07 6.5 43.8 59 -1 30.3
16:00 1020 30.12 850 25.1 6.6 43.9 58 -1 30.2
16:05 1020 30.12 850 25.1 6.2 43.1 62 -0.5 31.1
16:10 1020 30.12 850 25.1 6 42.8 62 -0.7 30.7
16:15 1020 30.12 850 25.1 5.8 42.5 62 -0.8 30.6
16:20 1020 30.12 850 25.1 5.2 41.4 63 -1.3 29.6
16:25 1020 30.12 850 25.1 4.7 40.5 63 -1.6 29.1
16:30 1020 30.12 850 25.1 4.6 40.2 64 -1.7 28.9
16:35 1020 30.12 850 25.1 4.1 39.5 65 -1.9 28.6
16:40 1020 30.12 849 25.07 4 39.3 66 -1.8 28.7
16:45 1020 30.12 849 25.07 4 39.2 66 -1.7 28.9
16:50 1020 30.12 849 25.07 3.8 38.8 66 -1.9 28.6
16:55 1020 30.12 849 25.07 3.8 38.9 66 -1.9 28.5
17:00 1020 30.12 849 25.07 3.7 38.7 67 -1.7 28.9
17:05 1020 30.12 849 25.07 3.5 38.4 68 -1.8 28.8
17:10 1020 30.12 849 25.07 3.8 38.9 67 -1.7 28.9
17:15 1020 30.12 849 25.07 3.8 38.9 67 -1.8 28.8
17:20 1020 30.12 849 25.07 3.7 38.7 67 -1.8 28.8
17:25 1020 30.12 849 25.07 3.7 38.6 68 -1.7 29
17:30 1020 30.12 849 25.07 3.7 38.6 68 -1.6 29.1
17:35 1020 30.12 849 25.07 3.6 38.5 69 -1.6 29.1
17:40 1020 30.12 849 25.07 3.7 38.6 68 -1.6 29.1
17:45 1020 30.12 849 25.07 3.6 38.6 69 -1.5 29.2
17:50 1020 30.12 849 25.07 3.7 38.6 69 -1.5 29.2
17:55 1020 30.12 849 25.07 3.6 38.4 70 -1.4 29.5
18:00 1020 30.12 849 25.07 3.5 38.3 70 -1.5 29.4
18:05 1020 30.12 849 25.07 3.4 38.2 71 -1.4 29.5
18:10 1020 30.12 849 25.07 3.3 37.9 71 -1.5 29.4
18:15 1020 30.12 849 25.07 3.1 37.5 72 -1.4 29.4
18:20 1020 30.12 849 25.07 3 37.5 72 -1.6 29.2
18:25 1020 30.12 849 25.07 3.2 37.7 72 -1.4 29.5
18:30 1020 30.12 849 25.07 3.2 37.8 73 -1.2 29.8
18:35 1020 30.12 849 25.07 3.3 38 73 -1 30.2
18:40 1020 30.12 849 25.07 3.1 37.6 73 -1.2 29.9
18:45 1020 30.12 849 25.07 2.9 37.3 75 -1.1 30.1
18:50 1020 30.12 849 25.07 2.8 37.1 76 -1 30.3
18:55 1020 30.12 849 25.07 2.8 37 77 -0.9 30.5
19:00 1020 30.12 849 25.07 3 37.3 76 -0.8 30.5
19:05 1020 30.12 849 25.07 3.1 37.6 76 -0.8 30.6
19:10 1020 30.12 849 25.07 3.1 37.6 77 -0.5 31
19:15 1020 30.12 850 25.1 2.8 37 79 -0.6 31
19:20 1020 30.12 850 25.1 2.3 36.1 81 -0.6 30.9
19:25 1020 30.12 850 25.1 2.1 35.7 83 -0.5 31
19:30 1020 30.12 850 25.1 1.9 35.5 84 -0.4 31.3
19:35 1020 30.12 850 25.1 1.8 35.3 84 -0.5 31
19:40 1020 30.12 850 25.1 1.7 35.1 85 -0.5 31.1
19:45 1021 30.15 850 25.1 1.6 34.8 86 -0.5 31.2
19:50 1021 30.15 850 25.1 1.5 34.7 87 -0.4 31.3
19:55 1021 30.15 850 25.1 1.5 34.7 87 -0.4 31.4
20:00 1021 30.15 850 25.1 1.5 34.7 88 -0.2 31.6
20:05 1021 30.15 850 25.1 1.4 34.6 88 -0.3 31.5
20:10 1021 30.15 850 25.1 1.4 34.4 89 -0.2 31.6
20:15 1021 30.15 850 25.1 1.3 34.3 90 -0.2 31.6
20:20 1021 30.15 850 25.1 1.2 34.1 90 -0.3 31.5
20:25 1021 30.15 850 25.1 1 33.9 91 -0.3 31.4
20:30 1021 30.15 850 25.1 1 33.8 91 -0.4 31.3
20:35 1021 30.15 850 25.1 0.8 33.5 92 -0.4 31.3
20:40 1021 30.15 850 25.1 0.8 33.4 92 -0.4 31.2
20:45 1021 30.15 851 25.13 0.8 33.4 93 -0.3 31.5
20:50 1021 30.15 851 25.13 0.6 33.1 93 -0.3 31.4
20:55 1021 30.15 851 25.13 0.6 33 94 -0.3 31.5
21:00 1021 30.15 851 25.13 0.4 32.7 95 -0.4 31.3
21:05 1022 30.18 851 25.13 0.3 32.5 95 -0.4 31.3
21:10 1022 30.18 851 25.13 0.2 32.4 96 -0.4 31.3
21:15 1022 30.18 851 25.13 0.2 32.3 96 -0.4 31.4
21:20 1022 30.18 851 25.13 0.1 32.1 97 -0.4 31.3
21:25 1022 30.18 851 25.13 -0 32 97 -0.5 31.2
21:30 1022 30.18 851 25.13 -0.1 31.8 97 -0.5 31.1
21:35 1022 30.18 851 25.13 -0.2 31.6 98 -0.5 31
21:40 1022 30.18 851 25.13 -0.3 31.5 98 -0.6 30.9
21:45 1022 30.18 851 25.13 -0.3 31.4 98 -0.6 30.9
21:50 1022 30.18 851 25.13 -0.4 31.2 98 -0.7 30.7
21:55 1022 30.18 851 25.13 -0.5 31.2 98 -0.7 30.7
22:00 1022 30.18 851 25.13 -0.5 31.1 98 -0.7 30.7
22:05 1022 30.18 851 25.13 -0.6 31 98 -0.8 30.5
22:10 1022 30.18 851 25.13 -0.6 30.8 98 -0.9 30.4
22:15 1022 30.18 851 25.13 -0.7 30.7 98 -1 30.3
22:20 1022 30.18 851 25.13 -0.7 30.7 99 -0.9 30.3
22:25 1022 30.18 851 25.13 -0.7 30.7 99 -0.9 30.3
22:30 1022 30.18 851 25.13 -0.8 30.6 99 -1 30.2
22:35 1022 30.18 851 25.13 -0.8 30.6 99 -1 30.3
22:40 1022 30.18 851 25.13 -0.8 30.5 99 -1 30.2
22:45 1022 30.18 851 25.13 -0.8 30.6 99 -1 30.3
22:50 1022 30.18 851 25.13 -0.8 30.6 99 -0.9 30.3
22:55 1022 30.18 851 25.13 -0.8 30.6 99 -1 30.3
23:00 1022 30.18 851 25.13 -0.8 30.6 99 -0.9 30.3
23:05 1022 30.18 851 25.13 -0.8 30.6 99 -0.9 30.3
23:10 1022 30.18 851 25.13 -0.8 30.6 99 -1 30.3
23:15 1022 30.18 851 25.13 -0.7 30.7 99 -0.9 30.4
23:20 1022 30.18 851 25.13 -0.7 30.7 99 -0.9 30.4
23:25 1022 30.18 851 25.13 -0.7 30.7 99 -0.9 30.4
23:30 1022 30.18 851 25.13 -0.7 30.7 99 -0.9 30.3
23:35 1022 30.18 851 25.13 -0.7 30.8 99 -0.8 30.5
23:40 1022 30.18 851 25.13 -0.7 30.8 99 -0.9 30.4
23:45 1022 30.18 851 25.13 -0.7 30.8 98 -0.9 30.4
23:50 1022 30.18 851 25.13 -0.7 30.8 98 -0.9 30.4
23:55 1022 30.18 851 25.13 -0.7 30.8 98 -1 30.3
24:00 1022 30.18 851 25.13 -0.7 30.7 98 -0.9 30.3